Location: Montreal
(45.5087°N, 73.5540°W)
Time: 18:22:46
(UTC-04:00)

Envisat - Visible Passes

Search period start: 25 June 2017 00:00
Search period end: 05 July 2017 00:00
Orbit: 764 x 766 km, 98.2° (Epoch: 25 June)

Date Brightness Start Highest point End Pass type
(mag) Time Alt. Az. Time Alt. Az. Time Alt. Az.
25 Jun 5.5 22:10:52 10° SW 22:14:05 17° W 22:17:21 10° NW visible
26 Jun 4.5 21:32:26 10° SSW 21:37:03 35° W 21:41:43 10° NNW visible
28 Jun 5.3 21:59:06 10° SW 22:02:54 21° W 22:06:43 10° NW visible
29 Jun 4.1 21:21:05 10° S 21:25:54 44° W 21:30:46 10° NNW visible
30 Jun 5.7 22:26:53 10° WSW 22:28:50 12° W 22:30:48 10° WNW visible
01 Jul 5.0 21:47:30 10° SSW 21:51:42 26° W 21:55:57 10° NW visible
03 Jul 5.5 22:14:40 10° SW 22:17:36 15° W 22:20:34 10° NW visible
04 Jul 4.7 21:36:01 10° SSW 21:40:32 32° W 21:45:05 10° NNW visible
